Time,TemperatureF,DewpointF,PressureIn,WindDirection,WindDirectionDegrees,WindSpeedMPH,WindSpeedGustMPH,Humidity,HourlyPrecipIn,Conditions,Clouds,dailyrainin,SoftwareType,DateUTC
2013-08-14 00:00:00,56.4,48.6,30.13,NNW,348,7.0,14.0,75,0.00,,---,0.00,VWS V14.01,2013-08-14 04:00:00,
2013-08-14 00:01:00,56.4,48.9,30.13,NNE,18,6.0,9.0,76,0.00,,---,0.00,VWS V14.01,2013-08-14 04:01:00,
2013-08-14 00:06:00,56.1,48.7,30.13,NNE,12,7.0,12.0,76,0.00,,---,0.00,VWS V14.01,2013-08-14 04:06:00,
2013-08-14 00:11:00,55.8,48.7,30.13,North,11,11.0,12.0,77,0.00,,---,0.00,VWS V14.01,2013-08-14 04:11:00,
2013-08-14 00:16:00,55.6,48.5,30.13,North,9,3.0,12.0,77,0.00,,---,0.00,VWS V14.01,2013-08-14 04:16:00,
2013-08-14 00:21:00,55.5,48.8,30.13,NNE,23,4.0,12.0,78,0.00,,---,0.00,VWS V14.01,2013-08-14 04:21:00,
2013-08-14 00:26:00,55.3,48.9,30.13,North,3,4.0,12.0,79,0.00,,---,0.00,VWS V14.01,2013-08-14 04:26:00,
2013-08-14 00:30:00,55.3,48.9,30.13,North,4,5.0,12.0,79,0.00,,---,0.00,VWS V14.01,2013-08-14 04:30:00,
2013-08-14 00:31:00,55.2,48.8,30.13,North,7,2.0,6.0,79,0.00,,---,0.00,VWS V14.01,2013-08-14 04:31:00,
2013-08-14 00:36:00,55.0,49.0,30.14,North,6,5.0,9.0,80,0.00,,---,0.00,VWS V14.01,2013-08-14 04:36:00,
2013-08-14 00:41:00,55.2,49.2,30.13,North,11,11.0,13.0,80,0.00,,---,0.00,VWS V14.01,2013-08-14 04:41:00,
2013-08-14 00:46:00,55.2,49.2,30.13,North,2,5.0,13.0,80,0.00,,---,0.00,VWS V14.01,2013-08-14 04:46:00,
2013-08-14 00:51:00,54.9,49.2,30.13,North,2,4.0,13.0,81,0.00,,---,0.00,VWS V14.01,2013-08-14 04:51:00,
2013-08-14 00:56:00,54.7,49.0,30.13,NNE,14,5.0,13.0,81,0.00,,---,0.00,VWS V14.01,2013-08-14 04:56:00,
2013-08-14 01:00:00,54.8,49.4,30.13,North,2,5.0,13.0,82,0.00,,---,0.00,VWS V14.01,2013-08-14 05:00:00,
2013-08-14 01:01:00,54.6,49.2,30.13,North,1,2.0,5.0,82,0.00,,---,0.00,VWS V14.01,2013-08-14 05:01:00,
2013-08-14 01:06:00,54.4,49.0,30.13,North,0,3.0,6.0,82,0.00,,---,0.00,VWS V14.01,2013-08-14 05:06:00,
2013-08-14 01:11:00,54.3,49.3,30.13,SE,144,0.0,6.0,83,0.00,,---,0.00,VWS V14.01,2013-08-14 05:11:00,
2013-08-14 01:16:00,54.2,49.2,30.13,ESE,120,1.0,6.0,83,0.00,,---,0.00,VWS V14.01,2013-08-14 05:16:00,
2013-08-14 01:21:00,54.2,49.5,30.13,East,101,2.0,6.0,84,0.00,,---,0.00,VWS V14.01,2013-08-14 05:21:00,
2013-08-14 01:26:00,54.2,49.5,30.13,East,100,2.0,6.0,84,0.00,,---,0.00,VWS V14.01,2013-08-14 05:26:00,
2013-08-14 01:30:00,54.3,49.6,30.13,NNE,14,5.0,6.0,84,0.00,,---,0.00,VWS V14.01,2013-08-14 05:30:00,
2013-08-14 01:31:00,54.3,49.6,30.13,NNW,347,3.0,5.0,84,0.00,,---,0.00,VWS V14.01,2013-08-14 05:31:00,
2013-08-14 01:36:00,54.3,49.3,30.14,North,0,4.0,6.0,83,0.00,,---,0.00,VWS V14.01,2013-08-14 05:36:00,
2013-08-14 01:41:00,54.3,49.3,30.13,North,0,5.0,6.0,83,0.00,,---,0.00,VWS V14.01,2013-08-14 05:41:00,
2013-08-14 01:46:00,54.5,50.1,30.14,North,0,3.0,7.0,85,0.00,,---,0.00,VWS V14.01,2013-08-14 05:46:00,
2013-08-14 01:51:00,54.6,49.9,30.14,North,4,2.0,7.0,84,0.00,,---,0.00,VWS V14.01,2013-08-14 05:51:00,
2013-08-14 01:56:00,54.2,49.2,30.14,North,8,4.0,7.0,83,0.00,,---,0.00,VWS V14.01,2013-08-14 05:56:00,
2013-08-14 02:00:00,54.0,49.3,30.14,North,10,3.0,7.0,84,0.00,,---,0.00,VWS V14.01,2013-08-14 06:00:00,
2013-08-14 02:01:00,54.0,49.6,30.13,North,3,5.0,8.0,85,0.00,,---,0.00,VWS V14.01,2013-08-14 06:01:00,
2013-08-14 02:07:00,53.7,49.3,30.13,North,0,4.0,8.0,85,0.00,,---,0.00,VWS V14.01,2013-08-14 06:07:00,
2013-08-14 02:12:00,53.3,48.9,30.13,North,11,4.0,8.0,85,0.00,,---,0.00,VWS V14.01,2013-08-14 06:12:00,
2013-08-14 02:17:00,53.0,49.2,30.14,North,359,6.0,8.0,87,0.00,,---,0.00,VWS V14.01,2013-08-14 06:17:00,
2013-08-14 02:22:00,53.2,49.4,30.14,North,354,3.0,8.0,87,0.00,,---,0.00,VWS V14.01,2013-08-14 06:22:00,
2013-08-14 02:27:00,53.5,49.7,30.14,North,9,5.0,8.0,87,0.00,,---,0.00,VWS V14.01,2013-08-14 06:27:00,
2013-08-14 02:30:00,53.6,49.8,30.14,NNW,332,1.0,8.0,87,0.00,,---,0.00,VWS V14.01,2013-08-14 06:30:00,
2013-08-14 02:32:00,53.6,49.8,30.13,North,5,4.0,5.0,87,0.00,,---,0.00,VWS V14.01,2013-08-14 06:32:00,
2013-08-14 02:37:00,53.9,50.1,30.14,North,0,3.0,8.0,87,0.00,,---,0.00,VWS V14.01,2013-08-14 06:37:00,
2013-08-14 02:42:00,53.9,50.1,30.13,North,0,2.0,8.0,87,0.00,,---,0.00,VWS V14.01,2013-08-14 06:42:00,
2013-08-14 02:47:00,53.7,49.6,30.13,North,0,2.0,8.0,86,0.00,,---,0.00,VWS V14.01,2013-08-14 06:47:00,
2013-08-14 02:52:00,53.6,49.8,30.13,North,5,1.0,8.0,87,0.00,,---,0.00,VWS V14.01,2013-08-14 06:52:00,
2013-08-14 02:57:00,53.5,49.7,30.14,North,5,1.0,8.0,87,0.00,,---,0.00,VWS V14.01,2013-08-14 06:57:00,
2013-08-14 03:00:00,53.5,49.4,30.14,North,5,0.0,8.0,86,0.00,,---,0.00,VWS V14.01,2013-08-14 07:00:00,
2013-08-14 03:02:00,53.3,49.5,30.14,North,5,0.0,2.0,87,0.00,,---,0.00,VWS V14.01,2013-08-14 07:02:00,
2013-08-14 03:07:00,53.0,49.2,30.14,North,5,1.0,3.0,87,0.00,,---,0.00,VWS V14.01,2013-08-14 07:07:00,
2013-08-14 03:12:00,53.0,49.2,30.14,North,5,1.0,5.0,87,0.00,,---,0.00,VWS V14.01,2013-08-14 07:12:00,
2013-08-14 03:17:00,53.0,49.2,30.14,North,4,3.0,5.0,87,0.00,,---,0.00,VWS V14.01,2013-08-14 07:17:00,
2013-08-14 03:22:00,52.9,49.5,30.14,North,5,3.0,5.0,88,0.00,,---,0.00,VWS V14.01,2013-08-14 07:22:00,
2013-08-14 03:27:00,53.1,49.7,30.14,North,5,2.0,5.0,88,0.00,,---,0.00,VWS V14.01,2013-08-14 07:27:00,
2013-08-14 03:30:00,53.2,49.7,30.14,North,5,2.0,5.0,88,0.00,,---,0.00,VWS V14.01,2013-08-14 07:30:00,
2013-08-14 03:32:00,53.2,49.7,30.13,North,5,1.0,3.0,88,0.00,,---,0.00,VWS V14.01,2013-08-14 07:32:00,
2013-08-14 03:37:00,52.8,49.3,30.14,North,5,0.0,3.0,88,0.00,,---,0.00,VWS V14.01,2013-08-14 07:37:00,
2013-08-14 03:42:00,51.5,47.8,30.13,North,5,3.0,5.0,87,0.00,,---,0.00,VWS V14.01,2013-08-14 07:42:00,
2013-08-14 03:47:00,50.4,47.3,30.13,North,5,2.0,5.0,89,0.00,,---,0.00,VWS V14.01,2013-08-14 07:47:00,
2013-08-14 03:52:00,49.8,47.0,30.14,North,7,1.0,5.0,90,0.00,,---,0.00,VWS V14.01,2013-08-14 07:52:00,
2013-08-14 03:57:00,49.0,46.5,30.14,SSE,155,2.0,5.0,91,0.00,,---,0.00,VWS V14.01,2013-08-14 07:57:00,
2013-08-14 04:00:00,48.6,45.8,30.14,SSE,155,3.0,5.0,90,0.00,,---,0.00,VWS V14.01,2013-08-14 08:00:00,
2013-08-14 04:02:00,48.5,46.0,30.14,SSE,155,2.0,4.0,91,0.00,,---,0.00,VWS V14.01,2013-08-14 08:02:00,
2013-08-14 04:07:00,47.8,45.6,30.14,SSE,152,2.0,5.0,92,0.00,,---,0.00,VWS V14.01,2013-08-14 08:07:00,
2013-08-14 04:12:00,48.0,46.1,30.14,SE,144,3.0,6.0,93,0.00,,---,0.00,VWS V14.01,2013-08-14 08:12:00,
2013-08-14 04:17:00,47.8,45.9,30.14,SE,143,2.0,6.0,93,0.00,,---,0.00,VWS V14.01,2013-08-14 08:17:00,
2013-08-14 04:22:00,47.8,46.2,30.14,SE,142,1.0,6.0,94,0.00,,---,0.00,VWS V14.01,2013-08-14 08:22:00,
2013-08-14 04:27:00,47.7,45.8,30.14,SE,130,1.0,6.0,93,0.00,,---,0.00,VWS V14.01,2013-08-14 08:27:00,
2013-08-14 04:30:00,47.7,46.1,30.14,SE,134,2.0,6.0,94,0.00,,---,0.00,VWS V14.01,2013-08-14 08:30:00,
2013-08-14 04:32:00,47.7,46.1,30.14,SE,137,2.0,3.0,94,0.00,,---,0.00,VWS V14.01,2013-08-14 08:32:00,
2013-08-14 04:37:00,47.8,46.4,30.14,SE,138,2.0,4.0,95,0.00,,---,0.00,VWS V14.01,2013-08-14 08:37:00,
2013-08-14 04:42:00,47.9,46.5,30.15,SE,138,1.0,4.0,95,0.00,,---,0.00,VWS V14.01,2013-08-14 08:42:00,
2013-08-14 04:47:00,47.8,46.4,30.14,SE,138,0.0,4.0,95,0.00,,---,0.00,VWS V14.01,2013-08-14 08:47:00,
2013-08-14 04:52:00,47.7,46.3,30.15,SE,139,0.0,4.0,95,0.00,,---,0.00,VWS V14.01,2013-08-14 08:52:00,
2013-08-14 04:57:00,47.7,46.3,30.15,SE,139,2.0,4.0,95,0.00,,---,0.00,VWS V14.01,2013-08-14 08:57:00,
2013-08-14 05:00:00,47.7,46.3,30.15,SE,125,1.0,4.0,95,0.00,,---,0.00,VWS V14.01,2013-08-14 09:00:00,
2013-08-14 05:02:00,47.7,46.3,30.15,SE,125,0.0,2.0,95,0.00,,---,0.00,VWS V14.01,2013-08-14 09:02:00,
2013-08-14 05:07:00,47.6,46.2,30.15,SE,127,2.0,3.0,95,0.00,,---,0.00,VWS V14.01,2013-08-14 09:07:00,
2013-08-14 05:12:00,47.6,46.2,30.14,SE,129,3.0,4.0,95,0.00,,---,0.00,VWS V14.01,2013-08-14 09:12:00,
2013-08-14 05:17:00,47.3,45.9,30.15,SE,130,1.0,4.0,95,0.00,,---,0.00,VWS V14.01,2013-08-14 09:17:00,
2013-08-14 05:22:00,47.1,45.7,30.15,SE,128,2.0,4.0,95,0.00,,---,0.00,VWS V14.01,2013-08-14 09:22:00,
2013-08-14 05:27:00,47.3,45.9,30.15,SE,130,0.0,4.0,95,0.00,,---,0.00,VWS V14.01,2013-08-14 09:27:00,
2013-08-14 05:30:00,47.3,45.9,30.15,SE,130,1.0,4.0,95,0.00,,---,0.00,VWS V14.01,2013-08-14 09:30:00,
2013-08-14 05:32:00,47.4,46.3,30.15,SE,125,1.0,3.0,96,0.00,,---,0.00,VWS V14.01,2013-08-14 09:32:00,
2013-08-14 05:37:00,47.1,45.7,30.15,SE,126,1.0,3.0,95,0.00,,---,0.00,VWS V14.01,2013-08-14 09:37:00,
2013-08-14 05:42:00,47.0,45.7,30.15,SE,125,2.0,3.0,95,0.00,,---,0.00,VWS V14.01,2013-08-14 09:42:00,
2013-08-14 05:47:00,46.7,45.3,30.15,SE,129,3.0,3.0,95,0.00,,---,0.00,VWS V14.01,2013-08-14 09:47:00,
2013-08-14 05:52:00,46.3,45.0,30.16,SE,130,2.0,3.0,95,0.00,,---,0.00,VWS V14.01,2013-08-14 09:52:00,
2013-08-14 05:57:00,46.0,44.7,30.16,SE,133,2.0,3.0,95,0.00,,---,0.00,VWS V14.01,2013-08-14 09:57:00,
2013-08-14 06:00:00,45.8,44.2,30.16,SE,130,3.0,3.0,94,0.00,,---,0.00,VWS V14.01,2013-08-14 10:00:00,
2013-08-14 06:02:00,45.8,44.5,30.16,SE,131,2.0,3.0,95,0.00,,---,0.00,VWS V14.01,2013-08-14 10:02:00,
2013-08-14 06:07:00,46.0,44.7,30.16,SE,133,2.0,4.0,95,0.00,,---,0.00,VWS V14.01,2013-08-14 10:07:00,
2013-08-14 06:12:00,46.1,44.8,30.16,SE,136,0.0,4.0,95,0.00,,---,0.00,VWS V14.01,2013-08-14 10:12:00,
2013-08-14 06:17:00,46.3,45.0,30.16,SE,138,1.0,4.0,95,0.00,,---,0.00,VWS V14.01,2013-08-14 10:17:00,
2013-08-14 06:23:00,46.1,44.8,30.16,SE,140,3.0,5.0,95,0.00,,---,0.00,VWS V14.01,2013-08-14 10:23:00,
2013-08-14 06:28:00,46.1,44.8,30.16,SE,138,2.0,5.0,95,0.00,,---,0.00,VWS V14.01,2013-08-14 10:28:00,
2013-08-14 06:30:00,46.0,44.7,30.16,SE,139,2.0,5.0,95,0.00,,---,0.00,VWS V14.01,2013-08-14 10:30:00,
2013-08-14 06:33:00,46.0,44.7,30.16,SE,138,3.0,5.0,95,0.00,,---,0.00,VWS V14.01,2013-08-14 10:33:00,
2013-08-14 06:38:00,46.0,44.7,30.16,SE,139,2.0,5.0,95,0.00,,---,0.00,VWS V14.01,2013-08-14 10:38:00,
2013-08-14 06:43:00,46.1,44.8,30.16,SE,139,3.0,5.0,95,0.00,,---,0.00,VWS V14.01,2013-08-14 10:43:00,
2013-08-14 06:48:00,46.0,44.7,30.16,SE,139,2.0,5.0,95,0.00,,---,0.00,VWS V14.01,2013-08-14 10:48:00,
2013-08-14 06:53:00,46.0,44.7,30.17,SE,139,4.0,5.0,95,0.00,,---,0.00,VWS V14.01,2013-08-14 10:53:00,
2013-08-14 06:58:00,45.8,44.5,30.17,SE,140,2.0,5.0,95,0.00,,---,0.00,VWS V14.01,2013-08-14 10:58:00,
2013-08-14 07:00:00,45.8,44.5,30.17,SE,140,4.0,5.0,95,0.00,,---,0.00,VWS V14.01,2013-08-14 11:00:00,
2013-08-14 07:03:00,45.8,44.5,30.17,SE,139,3.0,4.0,95,0.00,,---,0.00,VWS V14.01,2013-08-14 11:03:00,
2013-08-14 07:08:00,46.2,44.8,30.17,SE,141,2.0,5.0,95,0.00,,---,0.00,VWS V14.01,2013-08-14 11:08:00,
2013-08-14 07:13:00,46.5,45.4,30.17,SE,142,2.0,5.0,96,0.00,,---,0.00,VWS V14.01,2013-08-14 11:13:00,
2013-08-14 07:18:00,46.5,45.2,30.17,SE,140,2.0,6.0,95,0.00,,---,0.00,VWS V14.01,2013-08-14 11:18:00,
2013-08-14 07:23:00,46.4,45.3,30.18,SE,139,5.0,6.0,96,0.00,,---,0.00,VWS V14.01,2013-08-14 11:23:00,
2013-08-14 07:28:00,46.1,45.0,30.17,SE,139,2.0,6.0,96,0.00,,---,0.00,VWS V14.01,2013-08-14 11:28:00,
2013-08-14 07:30:00,46.0,44.7,30.17,SE,140,3.0,6.0,95,0.00,,---,0.00,VWS V14.01,2013-08-14 11:30:00,
2013-08-14 07:33:00,46.0,44.9,30.17,SE,139,2.0,5.0,96,0.00,,---,0.00,VWS V14.01,2013-08-14 11:33:00,
2013-08-14 07:38:00,46.0,44.9,30.17,SE,140,2.0,5.0,96,0.00,,---,0.00,VWS V14.01,2013-08-14 11:38:00,
2013-08-14 07:43:00,46.3,45.2,30.17,SE,135,3.0,5.0,96,0.00,,---,0.00,VWS V14.01,2013-08-14 11:43:00,
2013-08-14 07:48:00,46.7,45.6,30.18,SE,129,2.0,5.0,96,0.00,,---,0.00,VWS V14.01,2013-08-14 11:48:00,
2013-08-14 08:00:00,45.8,44.5,30.17,SE,140,4.0,5.0,95,0.00,,---,0.00,VWS V14.01,2013-08-14 12:00:00,
2013-08-14 08:30:00,46.0,44.7,30.17,SE,140,3.0,6.0,95,0.00,,---,0.00,VWS V14.01,2013-08-14 12:30:00,
2013-08-14 21:48:00,55.8,51.0,29.64,West,281,2.0,2.0,84,0.00,,---,0.00,VWS V14.01,2013-08-15 01:48:00,
2013-08-14 21:53:00,55.5,51.1,29.64,West,281,0.0,2.0,85,0.00,,---,0.00,VWS V14.01,2013-08-15 01:53:00,
2013-08-14 21:58:00,55.4,51.0,29.64,West,281,0.0,3.0,85,0.00,,---,0.00,VWS V14.01,2013-08-15 01:58:00,
2013-08-14 22:03:00,55.2,51.1,29.64,West,281,0.0,2.0,86,0.00,,---,0.00,VWS V14.01,2013-08-15 02:03:00,
2013-08-14 22:08:00,55.0,50.9,29.64,West,281,0.0,3.0,86,0.00,,---,0.00,VWS V14.01,2013-08-15 02:08:00,
2013-08-14 22:13:00,54.6,50.5,29.63,West,280,0.0,3.0,86,0.00,,---,0.00,VWS V14.01,2013-08-15 02:13:00,
2013-08-14 22:18:00,53.9,50.1,29.63,West,281,1.0,3.0,87,0.00,,---,0.00,VWS V14.01,2013-08-15 02:18:00,
2013-08-14 22:23:00,53.3,50.2,29.63,West,280,1.0,3.0,89,0.00,,---,0.00,VWS V14.01,2013-08-15 02:23:00,
2013-08-14 22:28:00,53.2,50.0,29.63,West,280,1.0,3.0,89,0.00,,---,0.00,VWS V14.01,2013-08-15 02:28:00,
2013-08-14 22:33:00,53.0,50.2,29.63,West,280,1.0,3.0,90,0.00,,---,0.00,VWS V14.01,2013-08-15 02:33:00,
2013-08-14 22:38:00,52.9,50.0,29.63,West,280,0.0,3.0,90,0.00,,---,0.00,VWS V14.01,2013-08-15 02:38:00,
2013-08-14 22:43:00,52.7,50.2,29.63,West,280,0.0,3.0,91,0.00,,---,0.00,VWS V14.01,2013-08-15 02:43:00,
2013-08-14 22:48:00,52.6,50.0,29.63,West,280,0.0,3.0,91,0.00,,---,0.00,VWS V14.01,2013-08-15 02:48:00,
2013-08-14 22:53:00,52.4,50.2,29.63,West,279,0.0,3.0,92,0.00,,---,0.00,VWS V14.01,2013-08-15 02:53:00,
2013-08-14 22:58:00,52.0,49.8,29.63,West,279,0.0,3.0,92,0.00,,---,0.00,VWS V14.01,2013-08-15 02:58:00,
2013-08-14 23:00:00,55.3,51.2,29.64,West,281,0.0,3.0,86,0.00,,---,0.00,VWS V14.01,2013-08-15 03:00:00,
2013-08-14 23:03:00,51.8,49.8,29.63,West,279,0.0,1.0,93,0.00,,---,0.00,VWS V14.01,2013-08-15 03:03:00,
2013-08-14 23:09:00,51.8,50.1,29.63,West,279,0.0,2.0,94,0.00,,---,0.00,VWS V14.01,2013-08-15 03:09:00,
2013-08-14 23:14:00,52.1,50.1,29.63,West,279,1.0,3.0,93,0.00,,---,0.00,VWS V14.01,2013-08-15 03:14:00,
2013-08-14 23:19:00,52.1,49.8,29.63,West,279,0.0,3.0,92,0.00,,---,0.00,VWS V14.01,2013-08-15 03:19:00,
2013-08-14 23:24:00,52.1,49.8,29.63,West,279,1.0,3.0,92,0.00,,---,0.00,VWS V14.01,2013-08-15 03:24:00,
2013-08-14 23:29:00,52.1,49.8,29.64,West,279,1.0,3.0,92,0.00,,---,0.00,VWS V14.01,2013-08-15 03:29:00,
2013-08-14 23:30:00,53.0,49.8,29.63,West,280,1.0,3.0,89,0.00,,---,0.00,VWS V14.01,2013-08-15 03:30:00,
2013-08-14 23:34:00,52.3,50.0,29.64,West,279,2.0,3.0,92,0.00,,---,0.00,VWS V14.01,2013-08-15 03:34:00,
2013-08-14 23:39:00,52.4,50.2,29.64,SSE,158,2.0,3.0,92,0.00,,---,0.00,VWS V14.01,2013-08-15 03:39:00,
2013-08-14 23:44:00,52.3,50.0,29.63,SSE,158,2.0,4.0,92,0.00,,---,0.00,VWS V14.01,2013-08-15 03:44:00,
2013-08-14 23:49:00,52.3,50.0,29.63,SSE,158,1.0,4.0,92,0.00,,---,0.00,VWS V14.01,2013-08-15 03:49:00,
2013-08-14 23:54:00,52.1,49.8,29.63,SSE,158,3.0,4.0,92,0.00,,---,0.00,VWS V14.01,2013-08-15 03:54:00,
2013-08-14 23:59:00,51.8,49.5,29.63,SSE,158,2.0,5.0,92,0.00,,---,0.00,VWS V14.01,2013-08-15 03:59:00,